Regional Weather Roundup
Issued by NWS

Home | Current Version | Previous Version | Text Only | Print | Product List | Glossary On
Versions: 1 2 3 4 5 6 7 8 9 10 11 12 13 14 15 16 17 18 19 20 21 22 23 24 25 26 27 28 29 30 31 32 33 34 35 36 37 38 39 40 41 42 43 44 45 46 47 48 49 50
000
ASUS43 KMKX 240910
RWRWI

WISCONSIN REGIONAL WEATHER ROUNDUP
NATIONAL WEATHER SERVICE MILWAUKEE/SULLIVAN WI
300 AM CST TUE JAN 24 2017

NOTE: "FAIR" INDICATES FEW OR NO CLOUDS BELOW 12,000 FEET WITH NO
SIGNIFICANT WEATHER AND/OR OBSTRUCTIONS TO VISIBILITY.

WIZ001-002-006>008-014>016-023>028-241000-
NORTHWEST WISCONSIN

CITY           SKY/WX    TMP DP  RH WIND       PRES   REMARKS
SUPERIOR ARPT  CLOUDY    32  32  98 CALM      29.86R
ASHLAND        CLOUDY    34  32  92 SW5       29.85R WCI  30
HAYWARD        CLOUDY    33  31  92 SW3       29.84R
SIREN          CLOUDY    31  31  99 CALM      29.86S FOG
CUMBERLAND     CLOUDY    32  32 100 W3        29.85R FOG
RICE LAKE      CLOUDY    32  32  99 CALM      29.86S FOG
CHETEK         CLOUDY    32  32  99 CALM      29.85S
LADYSMITH      CLOUDY    32  32  99 CALM      29.85S
EAU CLAIRE     CLOUDY    32  31  96 W3        29.85S FOG
MENOMONIE        N/A    N/A N/A N/A MISG        N/A
NEW RICHMOND   CLOUDY    31  31 100 NW5       29.87R FOG     WCI  27
OSCEOLA        CLOUDY    32  32 100 CALM      29.90S FOG
$$

WIZ003>005-009-010-017-018-241000-
NORTH CENTRAL WISCONSIN

CITY           SKY/WX    TMP DP  RH WIND       PRES   REMARKS
MANITOWISH WTR CLOUDY    32  32 100 W5        29.80R WCI  27
ARBOR VITAE    CLOUDY    34  33  97 NW3       29.80R
WOODRUFF       CLOUDY    34  33  97 NW3       29.80R
RHINELANDER    FOG       34  34 100 W5        29.79S VSB 1/2 WCI  30
EAGLE RIVER    FOG       33  33 100 NW5       29.78S VSB 1   WCI  28
LAND O LAKES   CLOUDY    33  33 100 CALM      29.80S FOG
PHILLIPS       CLOUDY    32  32 100 CALM      29.81S
TOMAHAWK       CLOUDY    32  32  99 NW3       29.81S FOG
MEDFORD        CLOUDY    32  31  98 CALM      29.81S
MERRILL        CLOUDY    33  33 100 NW3         N/A
$$

WIZ029-030-035-036-043>047-241000-
CENTRAL WISCONSIN

CITY           SKY/WX    TMP DP  RH WIND       PRES   REMARKS
WAUSAU         CLOUDY    33  33 100 NW6       29.80S WCI  28
MOSINEE        CLOUDY    32  32 100 NW8       29.82S FOG     WCI  25
MARSHFIELD     CLOUDY    33  31  92 NW6       29.82R WCI  28
STEVENS POINT  CLOUDY    32  32 100 W6        29.83R FOG     WCI  26
WAUPACA        CLOUDY    37  36  96 CALM      29.82R FOG
WAUTOMA        CLOUDY    34  33  96 W8        29.84R FOG     WCI  27
WISC RAPIDS    CLOUDY    34  33  96 W6        29.84R WCI  29
CAMP DOUGLAS   CLOUDY    33  33  98 CALM      29.84S
$$

WIZ011>013-019>022-031-037>040-048>050-241000-
NORTHEAST WISCONSIN

CITY           SKY/WX    TMP DP  RH WIND       PRES   REMARKS
ANTIGO         FOG       33  33 100 NW6       29.79S VSB 3/4 WCI  27
SHAWANO        CLOUDY    37  34  89 W5        29.80S WCI  33
OCONTO         CLOUDY    33  33  99 W6        29.80S VSB 1/2 WCI  28
STURGEON BAY   FOG       32  32 100 N3        29.80R VSB 1/4
GREEN BAY      CLOUDY    36  35  96 NW5       29.80R WCI  32
MANITOWOC      CLOUDY    35  34  96 NW3       29.80S
APPLETON       CLOUDY    34  34 100 W8        29.79S FOG     WCI  27
CLINTONVILLE   CLOUDY    34  34 100 NW5       29.81S WCI  30
OSHKOSH        CLOUDY    35  33  92 W6        29.81R FOG     WCI  30
$$

WIZ032>034-041-042-053>061-241000-
SOUTHWEST WISCONSIN

CITY           SKY/WX    TMP DP  RH WIND       PRES   REMARKS
LA CROSSE      CLOUDY    36  31  82 CALM      29.87R
SPARTA         CLOUDY    31  31 100 CALM      29.87R FOG
VIROQUA        CLOUDY    32  32 100 CALM      29.83S
BOSCOBEL       CLOUDY    35  32  88 CALM      29.87R
PRAIRIE DU CHI CLOUDY    32  31  95 CALM      29.86S
PLATTEVILLE    CLOUDY    33  33 100 W3        29.85F
$$

WIZ056-057-062-063-064-067-068-241000-
SOUTH CENTRAL WISCONSIN

CITY           SKY/WX    TMP DP  RH WIND       PRES   REMARKS
REEDSBURG      CLOUDY    33  33  99 CALM      29.84S
BARABOO/DELLS  CLOUDY    33  32  94 W3        29.84S
LONE ROCK      CLOUDY    34  31  88 CALM      29.86S
MINERAL POINT  CLOUDY    34  34 100 CALM      29.83F
MADISON        CLOUDY    34  31  88 W5        29.84S WCI  30
MIDDLETON      CLOUDY    36  35  99 NW7       29.85S WCI  30
WATERTOWN      CLOUDY    34  34 100 W7        29.83S WCI  28
MONROE         CLOUDY    34  32  93 W3        29.84S
JANESVILLE     CLOUDY    36  34  93 W8        29.85R WCI  29
$$

WIZ051-052-058>065-066-070>072-241000-
SOUTHEAST WISCONSIN

CITY           SKY/WX    TMP DP  RH WIND       PRES   REMARKS
MILWAUKEE      CLOUDY    38  34  85 W8        29.82R WCI  32
WAUKESHA       FOG       32  32 100 W10       29.83S VSB 3/4 WCI  24
MILWAUKEE/TIMM CLOUDY    34  32  93 W7        29.82S FOG     WCI  28
RACINE         CLOUDY    37  33  85 W6        29.83R WCI  32
KENOSHA        CLOUDY    37  34  89 W7        29.82R FOG     WCI  32
FOND DU LAC    CLOUDY    35  33  92 W6        29.82R FOG     WCI  30
SHEBOYGAN      CLOUDY    35  33  92 W6        29.80R WCI  30
WEST BEND      CLOUDY    34  34 100 W7        29.81S FOG     WCI  28
JUNEAU         FOG       33  33  99 W5        29.84R VSB 1/4 WCI  29
$$

LSZ147-162-241000-
LAKE SUPERIOR

STATION/POSITION TIME  TEMP    WIND        PRES    WAVE
                       AIR SEA DIR/SP/G            HT/PER
                 (UTC) (F)     (DEG/KT/KT) (MB)    (FT/S)
DEVILS ISLAND    0900   34     230/  9/ 10 1011.0R
PORT WING        0830   33     200/  3/  4 1011.2R
SAXON HARBOR     0840   33     170/  2/  3 1010.5R
$$

LMZ867-665-643>646-241000-
LAKE MICHIGAN

STATION/POSITION TIME  TEMP    WIND        PRES    WAVE
                       AIR SEA DIR/SP/G            HT/PER
                 (UTC) (F)     (DEG/KT/KT) (MB)    (FT/S)
NORTHPORT PIER   0840   33     280/  1/  6 1008.8R
SISTER BAY       0820   32        CALM       N/A
KEWAUNEE LAKESHO 0848   35      CALM  /  3 1008.5R
SHEBOYGAN LAKESH 0900   36     270/ 10/ 11 1009.4R
PORT WASHINGTON  0840   37     300/  4/  8 1010.8R
KENOSHA   LAKESH 0900   37     290/  6/ 10 1010.5
$$

TC  - TEMPERATURE IN CELSIUS
VSB - VISIBILITY IN STATUTE MILES
WCI - WIND CHILL INDEX
HX  - HEAT INDEX





USA.gov is the U.S. government's official web portal to all federal, state and local government web resources and services.